Wautoma, WI

5:50 AM CDT on August 30, 2016 (GMT -0500)
Wautoma

Weather History for KY50 - January, 2014

Change the Weather History Date:

Wednesday, January 1, 2014

  Actual Average (KPCZ) Record (KPCZ)
Temperature  
Mean Temperature 0 °F -  
Max Temperature 7 °F 25 °F 41 °F (1980)
Min Temperature -8 °F 9 °F -20 °F (1968)
Degree Days  
Heating Degree Days 66    
Moisture  
Dew Point -    
Average Humidity    
Maximum Humidity    
Minimum Humidity    
Precipitation  
Precipitation 0.00 in - - ()
Sea Level Pressure  
Sea Level Pressure 30.40 in    
Wind  
Wind Speed 6 mph (NNE)    
Max Wind Speed 10 mph    
Max Gust Speed -    
Visibility 10 miles    
Events      
Averages and records for this station are not official NWS values.
T = Trace of Precipitation, MM = Missing Value Source: NWS Daily Summary

Daily Weather History Graph

Daily Weather History Graph

Search for Another Location

Airport or City:

Trip Planner

Search our weather history database for the weather conditions in past years. The results will help you decide how hot, cold, wet, or windy it might be!

Date:

Astronomy

Jan. 01, 2014 Rise Set
Actual Time 7:32 AM CST 4:29 PM CST
Civil Twilight 6:59 AM CST 5:02 PM CST
Nautical Twilight 6:22 AM CST 5:39 PM CST
Astronomical Twilight 5:47 AM CST 6:14 PM CST
Moon 7:20 AM CST (1/1) 5:17 PM CST (1/1)
Length of Visible Light 10h 03m
Length of Day
8h 57m
New Moon, 0% of the Moon is Illuminated
Jan 1
New Moon
Jan 7
First Quarter
Jan 15
Full
Jan 23
Last Quarter
Jan 30
New

Hourly Weather History & Observations

Time (CST) Temp. Windchill Dew Point Humidity Pressure Visibility Wind Dir Wind Speed Gust Speed Precip Events Conditions
12:56 AM -8.9 °F -22.1 °F - N/A% 30.41 in 10.0 mi NNE 5.8 mph - N/A   Clear
1:56 AM -6.0 °F -14.7 °F - N/A% 30.41 in 10.0 mi NE 3.5 mph - N/A   Overcast
2:56 AM -4.9 °F -17.4 °F - N/A% 30.43 in 10.0 mi NNE 5.8 mph - N/A   Overcast
3:56 AM -4.9 °F -15.6 °F - N/A% 30.44 in 10.0 mi NE 4.6 mph - N/A   Overcast
4:56 AM -4.9 °F -18.8 °F - N/A% 30.43 in 10.0 mi ENE 6.9 mph - N/A   Overcast
5:56 AM -4.0 °F -14.6 °F - N/A% 30.43 in 10.0 mi NE 4.6 mph - N/A   Overcast
6:56 AM -2.9 °F -19.8 °F - N/A% 30.44 in 10.0 mi NE 10.4 mph - N/A   Overcast
7:56 AM -1.8 °F -15.2 °F - N/A% 30.46 in 10.0 mi NNE 6.9 mph - N/A   Overcast
8:56 AM -0.9 °F -15.3 °F - N/A% 30.48 in 10.0 mi NE 8.1 mph - N/A   Overcast
9:56 AM 1.0 °F -11.7 °F - N/A% 30.48 in 10.0 mi NE 6.9 mph - N/A   Overcast
10:56 AM 3.0 °F -11.5 °F - N/A% 30.47 in 10.0 mi NE 9.2 mph - N/A   Overcast
11:56 AM 3.2 °F -12.2 °F - N/A% 30.38 in 10.0 mi NNE 10.4 mph - N/A   Overcast
12:56 PM 5.0 °F -9.1 °F - N/A% 30.42 in 10.0 mi NNE 9.2 mph - N/A   Overcast
1:17 PM 6.8 °F -4.8 °F - N/A% 30.35 in 10.0 mi North 6.9 mph - N/A   Overcast
1:56 PM 6.1 °F -6.8 °F - N/A% 30.40 in 10.0 mi NE 8.1 mph - N/A   Overcast
2:44 PM 6.8 °F -7.8 °F - N/A% 30.34 in 10.0 mi NNE 10.4 mph - N/A   Overcast
2:56 PM 6.8 °F -5.9 °F - N/A% 30.33 in 10.0 mi NNE 8.1 mph - N/A   Overcast
3:49 PM 5.0 °F -5.6 °F - N/A% 30.35 in 10.0 mi NE 5.8 mph - N/A   Scattered Clouds
3:56 PM 5.0 °F -6.9 °F - N/A% 30.41 in 10.0 mi NNE 6.9 mph - N/A   Partly Cloudy
4:56 PM 4.1 °F -5.1 °F - N/A% 30.42 in 10.0 mi NE 4.6 mph - N/A   Mostly Cloudy
5:56 PM 3.2 °F -6.2 °F - N/A% 30.36 in 10.0 mi NNE 4.6 mph - N/A   Overcast
6:56 PM 4.1 °F -3.2 °F - N/A% 30.43 in 10.0 mi North 3.5 mph - N/A   Overcast
7:56 PM 5.0 °F -2.1 °F - N/A% 30.42 in 10.0 mi NNE 3.5 mph - N/A   Overcast
8:56 PM 6.8 °F -0.1 °F - N/A% 30.34 in 10.0 mi NNE 3.5 mph - N/A   Overcast
9:26 PM 6.8 °F -4.8 °F - N/A% 30.34 in 10.0 mi NNE 6.9 mph - N/A   Overcast
9:56 PM 7.2 °F -3.0 °F - N/A% 30.40 in 10.0 mi North 5.8 mph - N/A   Overcast
10:56 PM 7.2 °F -5.4 °F - N/A% 30.40 in 10.0 mi NNE 8.1 mph - N/A   Overcast
11:56 PM 6.8 °F -5.9 °F - N/A% 30.32 in 10.0 mi NNE 8.1 mph - N/A   Overcast